�������l�o���
Date,Time,MP-1(��Sv/h),MP-2(��Sv/h),MP-3(��Sv/h),MP-4(��Sv/h),MP-5(��Sv/h),MP-6(��Sv/h),MP-7(��Sv/h),MP-8(��Sv/h),����,����(m/s),���J
2020/09/07,00:00,0.670,0.950,0.613,1.170,0.839,0.386,0.676,0.635,��,4.2,��
2020/09/07,00:10,0.672,0.950,0.613,1.170,0.838,0.386,0.675,0.633,��,4.3,��
2020/09/07,00:20,0.673,0.948,0.611,1.167,0.840,0.386,0.675,0.635,��,4.2,��
2020/09/07,00:30,0.672,0.950,0.612,1.168,0.839,0.386,0.676,0.634,��,6.2,��
2020/09/07,00:40,0.673,0.946,0.611,1.169,0.840,0.387,0.674,0.635,��,5.6,��
2020/09/07,00:50,0.671,0.948,0.613,1.167,0.839,0.385,0.677,0.633,��,5.9,��
2020/09/07,01:00,0.673,0.950,0.612,1.169,0.837,0.387,0.677,0.635,��,6.6,��
2020/09/07,01:10,0.673,0.951,0.614,1.170,0.837,0.388,0.676,0.633,��,6.4,��
2020/09/07,01:20,0.672,0.948,0.613,1.169,0.838,0.387,0.676,0.634,��,7.1,��
2020/09/07,01:30,0.671,0.950,0.613,1.171,0.839,0.386,0.674,0.634,��,6.8,��
2020/09/07,01:40,0.673,0.949,0.612,1.170,0.840,0.387,0.676,0.633,��,6.0,��
2020/09/07,01:50,0.671,0.949,0.612,1.171,0.838,0.386,0.676,0.635,��,5.8,��
2020/09/07,02:00,0.672,0.947,0.612,1.168,0.837,0.385,0.676,0.633,��쓌,6.1,��
2020/09/07,02:10,0.672,0.946,0.612,1.169,0.840,0.386,0.678,0.634,��,6.1,��
2020/09/07,02:20,0.672,0.948,0.613,1.169,0.837,0.385,0.675,0.634,��,6.0,��
2020/09/07,02:30,0.672,0.949,0.612,1.168,0.838,0.386,0.676,0.635,��,5.5,��
2020/09/07,02:40,0.672,0.948,0.612,1.168,0.841,0.387,0.675,0.634,��,5.3,��
2020/09/07,02:50,0.670,0.948,0.611,1.169,0.837,0.384,0.676,0.634,��,5.4,��
2020/09/07,03:00,0.674,0.947,0.612,1.168,0.839,0.386,0.677,0.634,��,4.9,��
2020/09/07,03:10,0.670,0.949,0.613,1.171,0.839,0.386,0.675,0.636,��쓌,4.8,��
2020/09/07,03:20,0.672,0.949,0.611,1.168,0.839,0.388,0.674,0.634,��쓌,5.1,��
2020/09/07,03:30,0.671,0.946,0.613,1.169,0.839,0.386,0.674,0.635,��쓌,5.3,��
2020/09/07,03:40,0.673,0.947,0.613,1.170,0.839,0.386,0.678,0.637,��쓌,5.4,��
2020/09/07,03:50,0.673,0.948,0.613,1.169,0.837,0.386,0.677,0.634,��,4.9,��
2020/09/07,04:00,0.673,0.949,0.613,1.170,0.839,0.385,0.675,0.634,��쓌,5.6,��
2020/09/07,04:10,0.672,0.950,0.612,1.170,0.838,0.387,0.674,0.635,��쓌,6.5,��
2020/09/07,04:20,0.672,0.951,0.612,1.172,0.840,0.385,0.675,0.635,��,7.5,��
2020/09/07,04:30,0.673,0.949,0.612,1.169,0.840,0.386,0.676,0.635,��,9.6,�L
2020/09/07,04:40,0.672,0.949,0.611,1.170,0.837,0.387,0.677,0.634,��,9.2,�L
2020/09/07,04:50,0.673,0.951,0.612,1.167,0.837,0.389,0.675,0.634,��,9.5,��
2020/09/07,05:00,0.671,0.948,0.609,1.168,0.838,0.387,0.676,0.634,��,9.3,��
2020/09/07,05:10,0.672,0.949,0.610,1.169,0.838,0.386,0.676,0.635,��,9.7,�L
2020/09/07,05:20,0.674,0.947,0.612,1.170,0.838,0.386,0.675,0.635,��,8.2,�L
2020/09/07,05:30,0.674,0.949,0.609,1.169,0.837,0.387,0.674,0.633,��쐼,7.3,�L
2020/09/07,05:40,0.673,0.946,0.610,1.168,0.839,0.385,0.677,0.636,��,8.5,�L
2020/09/07,05:50,0.673,0.947,0.611,1.170,0.839,0.387,0.677,0.634,��,6.9,��
2020/09/07,06:00,0.673,0.947,0.612,1.170,0.838,0.386,0.677,0.634,��,6.8,��
2020/09/07,06:10,0.673,0.945,0.611,1.169,0.840,0.385,0.676,0.635,��,5.5,��
2020/09/07,06:20,0.673,0.948,0.611,1.169,0.839,0.385,0.676,0.633,��,5.1,��
2020/09/07,06:30,0.672,0.947,0.610,1.169,0.840,0.386,0.677,0.633,��쐼,5.8,�L
2020/09/07,06:40,0.674,0.948,0.611,1.169,0.841,0.386,0.675,0.633,��,7.1,��
2020/09/07,06:50,0.672,0.949,0.612,1.170,0.840,0.385,0.675,0.634,��,7.4,��
2020/09/07,07:00,0.674,0.952,0.611,1.170,0.840,0.386,0.677,0.634,��,7.5,��
2020/09/07,07:10,0.673,0.950,0.611,1.169,0.838,0.386,0.678,0.634,��,7.3,��
2020/09/07,07:20,0.676,0.948,0.614,1.168,0.840,0.385,0.677,0.634,��,6.4,��
2020/09/07,07:30,0.676,0.950,0.609,1.168,0.839,0.387,0.677,0.635,��,4.3,��
2020/09/07,07:40,0.674,0.949,0.610,1.165,0.841,0.387,0.675,0.634,��,4.9,�L
2020/09/07,07:50,0.675,0.950,0.607,1.169,0.840,0.386,0.678,0.633,��,7.3,�L
2020/09/07,08:00,0.674,0.948,0.610,1.170,0.838,0.388,0.677,0.634,��,6.8,��
2020/09/07,08:10,0.673,0.951,0.608,1.171,0.839,0.388,0.677,0.635,��,7.1,��
2020/09/07,08:20,0.674,0.951,0.609,1.168,0.840,0.387,0.677,0.635,��쐼,7.3,��
2020/09/07,08:30,0.674,0.949,0.608,1.172,0.841,0.388,0.677,0.637,��,7.1,��
2020/09/07,08:40,0.675,0.950,0.610,1.170,0.839,0.387,0.679,0.634,��,7.4,��
2020/09/07,08:50,0.676,0.948,0.609,1.169,0.840,0.386,0.678,0.635,��,7.8,�L
2020/09/07,09:00,0.676,0.948,0.609,1.169,0.842,0.388,0.679,0.635,��,7.9,��
2020/09/07,09:10,0.676,0.949,0.609,1.169,0.842,0.386,0.677,0.636,��,9.8,�L
2020/09/07,09:20,0.676,0.953,0.612,1.168,0.841,0.386,0.678,0.636,��,8.2,�L
2020/09/07,09:30,0.673,0.950,0.609,1.171,0.842,0.388,0.678,0.634,��,9.8,�L
2020/09/07,09:40,0.674,0.951,0.610,1.172,0.842,0.386,0.678,0.635,��,8.4,�L
2020/09/07,09:50,0.674,0.951,0.610,1.172,0.842,0.387,0.677,0.634,��,10.3,��
2020/09/07,10:00,0.675,0.951,0.613,1.171,0.842,0.386,0.679,0.634,��,11.0,��
2020/09/07,10:10,0.673,0.950,0.613,1.173,0.842,0.387,0.677,0.635,��,9.6,��
2020/09/07,10:20,0.672,0.950,0.612,1.172,0.841,0.387,0.678,0.635,��,9.7,��
2020/09/07,10:30,0.676,0.952,0.613,1.171,0.840,0.387,0.678,0.636,��,7.0,��
2020/09/07,10:40,0.674,0.949,0.611,1.170,0.841,0.387,0.679,0.637,��,6.4,��
2020/09/07,10:50,0.674,0.951,0.611,1.170,0.841,0.386,0.677,0.635,��,8.6,��
2020/09/07,11:00,0.676,0.951,0.613,1.172,0.842,0.388,0.677,0.635,��,6.6,��
2020/09/07,11:10,0.676,0.954,0.613,1.171,0.843,0.387,0.679,0.635,��,6.9,��
2020/09/07,11:20,0.675,0.952,0.610,1.171,0.843,0.388,0.678,0.636,��,8.4,��
2020/09/07,11:30,0.677,0.952,0.612,1.173,0.843,0.389,0.679,0.637,��,9.2,��
2020/09/07,11:40,0.676,0.951,0.613,1.172,0.842,0.388,0.678,0.635,��,9.1,��
2020/09/07,11:50,0.675,0.953,0.610,1.172,0.844,0.388,0.678,0.635,��,9.7,��
2020/09/07,12:00,0.674,0.954,0.612,1.169,0.843,0.387,0.677,0.634,��,10.0,��
2020/09/07,12:10,0.675,0.958,0.609,1.173,0.844,0.387,0.677,0.634,��,9.0,�L
2020/09/07,12:20,0.677,0.955,0.611,1.174,0.843,0.387,0.678,0.634,��,8.3,�L
2020/09/07,12:30,0.677,0.955,0.611,1.174,0.843,0.388,0.677,0.636,��,8.1,��
2020/09/07,12:40,0.676,0.956,0.610,1.176,0.844,0.387,0.678,0.634,��,7.9,��
2020/09/07,12:50,0.677,0.957,0.612,1.175,0.843,0.387,0.678,0.635,��,10.7,��
2020/09/07,13:00,0.676,0.954,0.610,1.175,0.842,0.391,0.679,0.634,��,8.3,��
2020/09/07,13:10,0.676,0.955,0.612,1.175,0.845,0.388,0.677,0.635,��,9.9,��
2020/09/07,13:20,0.675,0.956,0.612,1.173,0.845,0.388,0.678,0.633,��,8.4,��
2020/09/07,13:30,0.675,0.956,0.610,1.175,0.845,0.389,0.678,0.635,��,9.2,��
2020/09/07,13:40,0.677,0.953,0.608,1.174,0.846,0.390,0.678,0.635,��,10.7,��
2020/09/07,13:50,0.677,0.959,0.610,1.173,0.843,0.389,0.678,0.636,��,8.2,��
2020/09/07,14:00,0.677,0.954,0.610,1.176,0.844,0.389,0.677,0.634,��,8.6,��
2020/09/07,14:10,0.678,0.955,0.611,1.174,0.845,0.389,0.679,0.636,��,9.5,��
2020/09/07,14:20,0.677,0.957,0.610,1.174,0.846,0.389,0.679,0.634,��,7.9,��
2020/09/07,14:30,0.676,0.956,0.613,1.172,0.847,0.389,0.677,0.636,��,7.5,��
2020/09/07,14:40,0.677,0.956,0.614,1.174,0.849,0.389,0.678,0.637,��,7.1,��
2020/09/07,14:50,0.677,0.957,0.614,1.176,0.846,0.390,0.681,0.635,��,6.3,��
2020/09/07,15:00,0.679,0.958,0.614,1.176,0.849,0.390,0.679,0.636,��,8.0,��
2020/09/07,15:10,0.679,0.956,0.614,1.177,0.850,0.390,0.680,0.635,��,7.1,��
2020/09/07,15:20,0.679,0.961,0.612,1.178,0.849,0.391,0.678,0.636,��,8.0,�L
2020/09/07,15:30,0.678,0.962,0.615,1.177,0.849,0.389,0.679,0.636,��,9.0,��
2020/09/07,15:40,0.679,0.958,0.615,1.177,0.849,0.388,0.681,0.636,��,9.3,��
2020/09/07,15:50,0.679,0.959,0.614,1.175,0.848,0.391,0.681,0.636,��,9.7,��
2020/09/07,16:00,0.676,0.961,0.614,1.177,0.850,0.389,0.681,0.636,��,10.3,��
2020/09/07,16:10,0.676,0.963,0.614,1.175,0.846,0.388,0.680,0.637,��,8.6,��
2020/09/07,16:20,0.677,0.963,0.613,1.175,0.848,0.389,0.680,0.638,��,9.3,��
2020/09/07,16:30,0.677,0.961,0.613,1.177,0.848,0.388,0.680,0.636,��,10.5,��
2020/09/07,16:40,0.678,0.961,0.613,1.175,0.849,0.388,0.680,0.637,��,10.4,��
2020/09/07,16:50,0.678,0.961,0.613,1.177,0.847,0.389,0.680,0.637,��,10.2,��
2020/09/07,17:00,0.678,0.959,0.615,1.175,0.847,0.388,0.680,0.637,��쓌,10.5,��
2020/09/07,17:10,0.679,0.960,0.613,1.175,0.847,0.388,0.679,0.638,��,8.3,��
2020/09/07,17:20,0.679,0.961,0.613,1.176,0.849,0.389,0.679,0.636,��,9.1,��
2020/09/07,17:30,0.678,0.961,0.612,1.177,0.848,0.390,0.680,0.637,��,8.1,��
2020/09/07,17:40,0.678,0.960,0.613,1.176,0.849,0.388,0.679,0.636,��,7.6,��
2020/09/07,17:50,0.678,0.961,0.613,1.175,0.848,0.388,0.680,0.635,��,8.7,��
2020/09/07,18:00,0.677,0.962,0.612,1.177,0.848,0.387,0.677,0.635,��,10.2,��
2020/09/07,18:10,0.679,0.961,0.612,1.176,0.847,0.388,0.679,0.636,��,10.3,��
2020/09/07,18:20,0.678,0.962,0.614,1.175,0.848,0.387,0.678,0.635,��,10.4,��
2020/09/07,18:30,0.679,0.961,0.612,1.179,0.848,0.388,0.680,0.637,��,11.3,��
2020/09/07,18:40,0.677,0.954,0.614,1.176,0.850,0.389,0.678,0.637,��,10.5,��
2020/09/07,18:50,0.677,0.962,0.614,1.175,0.849,0.389,0.680,0.636,��,10.5,��
2020/09/07,19:00,0.678,0.961,0.614,1.179,0.848,0.390,0.678,0.638,��,10.5,��
2020/09/07,19:10,0.678,0.954,0.613,1.178,0.848,0.390,0.679,0.636,��,10.7,��
2020/09/07,19:20,0.677,0.958,0.613,1.177,0.850,0.389,0.679,0.635,��,11.4,��
2020/09/07,19:30,0.678,0.954,0.613,1.178,0.849,0.388,0.679,0.637,��,10.5,��
2020/09/07,19:40,0.677,0.901,0.613,1.178,0.850,0.389,0.681,0.636,��,11.3,��
2020/09/07,19:50,0.677,0.900,0.615,1.178,0.849,0.388,0.680,0.636,��,10.8,��
2020/09/07,20:00,0.679,0.907,0.613,1.177,0.849,0.389,0.680,0.637,��,10.5,��
2020/09/07,20:10,0.678,0.952,0.614,1.177,0.848,0.389,0.679,0.637,��,10.2,��
2020/09/07,20:20,0.678,0.959,0.615,1.177,0.848,0.389,0.679,0.638,��,10.7,��
2020/09/07,20:30,0.678,0.956,0.615,1.178,0.849,0.391,0.679,0.637,��,10.3,��
2020/09/07,20:40,0.677,0.956,0.614,1.180,0.851,0.390,0.681,0.636,��,11.3,��
2020/09/07,20:50,0.678,0.962,0.615,1.178,0.847,0.389,0.678,0.637,��,10.2,��
2020/09/07,21:00,0.676,0.959,0.617,1.180,0.849,0.389,0.680,0.637,��,10.5,��
2020/09/07,21:10,0.678,0.960,0.616,1.177,0.851,0.388,0.679,0.638,��,10.9,��
2020/09/07,21:20,0.679,0.963,0.614,1.180,0.850,0.388,0.681,0.637,��,10.3,��
2020/09/07,21:30,0.679,0.953,0.616,1.179,0.852,0.389,0.682,0.637,��,9.8,��
2020/09/07,21:40,0.679,0.925,0.614,1.178,0.851,0.388,0.680,0.637,��,10.5,��
2020/09/07,21:50,0.680,0.935,0.614,1.179,0.850,0.389,0.681,0.637,��,10.3,��
2020/09/07,22:00,0.681,0.939,0.614,1.178,0.850,0.389,0.680,0.636,��쐼,9.1,��
2020/09/07,22:10,0.680,0.949,0.616,1.177,0.850,0.388,0.679,0.637,��,9.3,��
2020/09/07,22:20,0.678,0.943,0.613,1.178,0.850,0.390,0.682,0.637,��,7.9,��
2020/09/07,22:30,0.677,0.957,0.614,1.178,0.852,0.389,0.680,0.637,��,7.9,��
2020/09/07,22:40,0.679,0.959,0.615,1.180,0.850,0.391,0.681,0.636,��,9.3,��
2020/09/07,22:50,0.679,0.953,0.615,1.180,0.850,0.389,0.680,0.637,��,8.6,��
2020/09/07,23:00,0.677,0.932,0.615,1.178,0.853,0.389,0.680,0.637,��,9.6,��
2020/09/07,23:10,0.678,0.961,0.614,1.179,0.852,0.389,0.679,0.637,��,9.4,��
2020/09/07,23:20,0.679,0.958,0.615,1.180,0.850,0.389,0.682,0.636,��,10.7,��
2020/09/07,23:30,0.680,0.963,0.615,1.176,0.851,0.390,0.679,0.636,��,8.6,��
2020/09/07,23:40,0.680,0.960,0.613,1.178,0.851,0.388,0.680,0.638,��,7.3,��
2020/09/07,23:50,0.677,0.947,0.616,1.177,0.850,0.389,0.680,0.636,��,8.7,��
